Torna al catalogo

CZ-4 DEB

AttivoSSO
NORAD 27677·DEBRIS·🇨🇳 China

Lanciato Oct 14, 1999 da Taiyuan Satellite Launch Center

Loading…

Prossimi Passaggi (prossime 24 ore)

TLE

AggiornatoSource: Space-Track

Epoca: Sep 14, 2026, 03:15 UTC

1 27677U 99057MR  26257.13579605  .00000255  00000-0  79567-4 0  9997
2 27677  98.5694 314.6386 0074066 176.8010 212.3821 14.47765947282767

Traccia CZ-4 DEB in tempo reale con AllMySat

Download on the App Store